FW6155 Weather Reports


time (UTC)temp
C
wind
direction
speed
KPH
gust
KPH
rain 1hr
cm
rain 24hr
cm
rain mn
cm
humidity
%
barometer
mb
20260503223043 26 0.0 0.0 0.00 0.00 0.00 45 1011.8
20260503221552 25 0.0 0.0 0.00 0.00 0.00 46 1012.0
20260503220039 25 0.0 0.0 0.00 0.00 0.00 45 1012.0
20260503214544 25 0.0 0.0 0.00 0.00 0.00 45 1012.2
20260503213059 25 0.0 0.0 0.00 0.00 0.00 46 1012.4
20260503211544 25 0.0 0.0 0.00 0.00 0.00 47 1012.4
20260503210053 25 0.0 0.0 0.00 0.00 0.00 47 1012.5
20260503204549 25 0.0 0.0 0.00 0.00 0.00 46 1012.8
20260503203047 25 0.0 0.0 0.00 0.00 0.00 47 1013.0
20260503201546 24 0.0 0.0 0.00 0.00 0.00 45 1013.2
20260503200049 24 0.0 0.0 0.00 0.00 0.00 46 1013.4
20260503194546 24 0.0 0.0 0.00 0.00 0.00 47 1013.5
20260503193050 23 0.0 0.0 0.00 0.00 0.00 49 1013.8
20260503191541 23 0.0 0.0 0.00 0.00 0.00 52 1014.0
20260503190048 22 0.0 0.0 0.00 0.00 0.00 54 1014.2
20260503184555 22 0.0 0.0 0.00 0.00 0.00 57 1014.3
20260503183100 22 0.0 0.0 0.00 0.00 0.00 56 1014.6
20260503181551 21 0.0 0.0 0.00 0.00 0.00 58 1014.6
20260503180047 21 0.0 0.0 0.00 0.00 0.00 59 1014.7
20260503174540 20 0.0 0.0 0.00 0.00 0.00 60 1014.8
20260503173111 20 0.0 0.0 0.00 0.00 0.00 61 1014.9
20260503171549 20 0.0 0.0 0.00 0.00 0.00 62 1015.0
20260503081548 16 0.0 0.0 0.00 0.00 0.00 67 1015.6
20260503071550 16 0.0 0.0 0.00 0.00 0.00 60 1015.4
20260503054545 18 0.0 0.0 0.00 0.00 0.00 55 1015.2
20260503053041 18 0.0 0.0 0.00 0.00 0.00 53 1015.1
20260503051543 18 0.0 0.0 0.00 0.00 0.00 53 1015.2
20260503050046 18 0.0 0.0 0.00 0.00 0.00 53 1015.1
20260503044544 19 0.0 0.0 0.00 0.00 0.00 53 1015.1
20260503043044 19 0.0 0.0 0.00 0.00 0.00 50 1015.0
20260503041548 20 0.0 0.0 0.00 0.00 0.00 51 1014.9
20260503040055 20 0.0 0.0 0.00 0.00 0.00 52 1014.8
20260503034602 20 0.0 0.0 0.00 0.00 0.00 51 1014.4
20260503033046 20 0.0 0.0 0.00 0.00 0.00 52 1014.4
20260503031545 20 0.0 0.0 0.00 0.00 0.00 57 1014.2
20260503030052 20 0.0 0.0 0.00 0.00 0.00 57 1014.0
20260503024540 21 0.0 0.0 0.00 0.00 0.00 56 1013.9
20260503023046 21 0.0 0.0 0.00 0.00 0.00 58 1013.8
20260503021546 21 0.0 0.0 0.00 0.00 0.00 56 1013.8
20260503020046 21 0.0 0.0 0.00 0.00 0.00 59 1013.8
20260503014548 21 0.0 0.0 0.00 0.00 0.00 59 1013.8
20260503013049 22 0.0 0.0 0.00 0.00 0.00 58 1013.8
20260503011550 22 0.0 0.0 0.00 0.00 0.00 56 1013.9
20260503010047 22 0.0 0.0 0.00 0.00 0.00 56 1013.9
20260503004545 22 0.0 0.0 0.00 0.00 0.00 55 1013.9
20260503003050 22 0.0 0.0 0.00 0.00 0.00 55 1013.9
20260503001543 22 0.0 0.0 0.00 0.00 0.00 55 1013.9
20260503000043 22 0.0 0.0 0.00 0.00 0.00 55 1014.0
20260502234541 22 0.0 0.0 0.00 0.00 0.00 54 1014.2
20260502233048 22 0.0 0.0 0.00 0.00 0.00 54 1014.3
20260502231552 22 0.0 0.0 0.00 0.00 0.00 55 1014.5
20260502230045 22 0.0 0.0 0.00 0.00 0.00 54 1014.7
20260502224542 22 0.0 0.0 0.00 0.00 0.00 55 1014.8